KINEIS-1D

Last updated on Thu Oct 23 2025 00:02:49 GMT+0000 (Coordinated Universal Time)

1 60082U 24114D 25295.51191417 .00001270 00000+0 19257-3 0 9996 2 60082 98.0061 313.1115 0000788 165.3685 194.7548 14.75834122 72064
UTC large
Height (km)
Speed (km/s)
/
Latitude / Longitude
Inclination (degrees)
Orbital Period (minutes)
Azimuth
Elevation
Range (km)
Doppler Factor

Next 0 passes for location: London (51.5072 / 0.1276)

Sorry there are no passes over London.